GW0625 Weather Reports


time (UTC)temp
C
wind
direction
speed
KPH
gust
KPH
rain 1hr
cm
rain 24hr
cm
rain mn
cm
humidity
%
barometer
mb
20260504081544 6 336 30.6 48.3 0.00 0.00 0.00 65 1013.7
20260504044539 11 16 17.7 29.0 0.00 0.00 0.00 39 1010.9
20260504043042 12 20 25.7 33.8 0.00 0.00 0.00 38 1010.6
20260504041542 12 5 20.9 32.2 0.00 0.00 0.00 40 1009.9
20260504040056 12 12 8.0 17.7 0.00 0.00 0.00 44 1009.2
20260504034544 12 355 3.2 8.0 0.00 0.00 0.00 42 1008.7
20260504033042 13 355 3.2 8.0 0.00 0.00 0.00 40 1008.3
20260504031553 13 12 8.0 17.7 0.00 0.00 0.00 38 1008.0
20260504030043 14 5 12.9 22.5 0.00 0.00 0.00 37 1007.8
20260504024536 15 26 16.1 25.7 0.00 0.00 0.00 36 1007.6
20260504023043 16 360 17.7 30.6 0.00 0.00 0.00 33 1007.5
20260504021540 16 5 20.9 33.8 0.00 0.00 0.00 32 1007.6
20260504020043 18 9 16.1 27.4 0.00 0.00 0.00 29 1007.5
20260504014542 18 5 16.1 27.4 0.00 0.00 0.00 26 1007.3
20260504013041 20 5 17.7 29.0 0.00 0.00 0.00 23 1007.3
20260504011543 21 331 12.9 41.8 0.00 0.00 0.00 22 1007.2
20260504010048 21 306 11.3 27.4 0.00 0.00 0.00 21 1007.2
20260504004541 22 304 8.0 27.4 0.00 0.00 0.00 20 1007.2
20260504003040 21 275 16.1 27.4 0.00 0.00 0.00 19 1007.3
20260504001543 22 309 14.5 32.2 0.00 0.00 0.00 19 1007.5
20260504000036 22 350 16.1 30.6 0.00 0.00 0.00 20 1007.6
20260503234558 22 352 11.3 25.7 0.00 0.00 0.00 21 1007.7
20260503233047 22 302 16.1 30.6 0.00 0.00 0.00 19 1007.6
20260503231541 22 296 17.7 37.0 0.00 0.00 0.00 19 1007.7
20260503230042 22 326 19.3 30.6 0.00 0.00 0.00 19 1007.8
20260503224536 22 341 14.5 33.8 0.00 0.00 0.00 20 1008.0
20260503223036 22 307 12.9 30.6 0.00 0.00 0.00 20 1008.0
20260503221555 22 329 16.1 29.0 0.00 0.00 0.00 19 1008.2
20260503220046 22 340 14.5 29.0 0.00 0.00 0.00 19 1008.6
20260503214541 22 324 16.1 29.0 0.00 0.00 0.00 20 1008.7
20260503213043 21 302 16.1 27.4 0.00 0.00 0.00 20 1008.8
20260503211540 22 350 19.3 32.2 0.00 0.00 0.00 20 1008.9
20260503210039 22 305 12.9 29.0 0.00 0.00 0.00 20 1009.1
20260503204536 22 312 12.9 30.6 0.00 0.00 0.00 21 1009.4
20260503203053 21 269 16.1 37.0 0.00 0.00 0.00 20 1009.5
20260503201549 21 299 20.9 30.6 0.00 0.00 0.00 21 1009.7
20260503200055 21 235 8.0 30.6 0.00 0.00 0.00 22 1009.8
20260503194543 21 332 14.5 29.0 0.00 0.00 0.00 22 1010.2
20260503193043 20 309 14.5 25.7 0.00 0.00 0.00 22 1010.4
20260503191537 20 325 14.5 27.4 0.00 0.00 0.00 23 1010.6
20260503190035 20 285 12.9 46.7 0.00 0.00 0.00 26 1010.8
20260503184541 20 290 16.1 30.6 0.00 0.00 0.00 25 1010.9
20260503183041 20 255 12.9 30.6 0.00 0.00 0.00 25 1011.0
20260503181542 20 292 9.7 20.9 0.00 0.00 0.00 24 1011.2
20260503180050 20 309 12.9 22.5 0.00 0.00 0.00 23 1011.4
20260503174542 19 211 11.3 24.1 0.00 0.00 0.00 24 1011.7
20260503173042 20 321 12.9 25.7 0.00 0.00 0.00 23 1011.9
20260503171547 19 321 12.9 25.7 0.00 0.00 0.00 25 1011.9